GFSSGP_prec_cthk_003.txt.gz
RH
56 60 59 63 56 48 61 63 63 72 75 74 70 70 76 78 76 77 75 76 83 82 84 84 78 75 77 76 74 68 60 58 49 51 46 43 41 42 42 42 41 38 38 41 42 43 43 43 51
57 63 63 60 44 43 41 45 51 60 67 72 67 69 71 78 73 69 69 70 73 73 72 70 69 71 67 64 62 59 55 54 51 50 47 45 45 46 45 44 43 42 42 43 43 45 45 44 47
67 64 66 67 49 41 38 35 38 47 57 65 66 67 69 68 66 61 60 62 64 63 63 61 63 65 59 56 54 54 50 49 48 49 49 48 46 48 50 52 53 51 47 43 43 45 45 47 47
59 62 58 58 54 40 37 33 33 39 51 60 64 66 62 63 63 59 58 60 60 59 58 59 58 56 52 51 50 50 47 45 44 48 50 50 50 52 51 51 52 53 52 49 47 47 45 48 49
59 56 50 43 49 55 42 34 29 34 44 51 55 57 61 63 61 58 57 58 60 60 61 60 56 49 47 47 46 48 46 44 45 48 52 53 53 52 50 50 51 52 54 57 56 51 46 45 50
56 54 53 53 52 58 46 38 32 32 39 43 47 45 56 58 59 57 55 54 55 55 56 55 53 48 47 47 49 50 49 48 50 54 56 56 53 53 53 58 61 61 58 57 56 54 51 49 49
54 54 55 54 52 61 52 48 43 31 34 39 41 44 49 53 55 56 54 53 52 52 54 53 51 50 47 48 49 48 47 46 47 49 51 52 53 57 61 67 63 70 62 59 56 54 54 54 54
50 49 52 53 56 57 55 50 46 36 31 33 34 40 46 46 49 49 51 51 48 47 48 50 48 48 48 48 46 45 45 47 50 51 51 56 63 69 66 76 68 65 65 61 59 62 62 58 56
52 57 52 53 54 52 51 53 55 47 32 32 36 33 35 41 46 47 47 47 48 46 48 47 48 47 46 47 47 47 47 48 51 52 56 60 66 62 60 67 66 63 59 68 63 67 69 75 70
47 52 56 49 49 48 43 50 47 40 35 34 35 34 37 40 42 41 43 43 44 43 46 55 51 48 48 52 55 57 52 52 53 56 55 57 59 62 62 62 66 67 67 67 69 70 67 70 69
43 46 43 49 47 41 45 54 46 42 39 30 29 31 36 39 41 41 40 40 40 42 43 46 51 46 48 49 48 48 47 50 51 54 54 55 56 62 58 55 60 57 61 60 64 68 72 70 69
40 42 38 43 42 43 46 49 36 36 33 30 26 30 36 40 42 43 43 42 41 40 39 40 41 44 46 46 48 45 48 49 50 53 57 56 62 58 55 61 61 56 57 55 56 64 65 62 61
33 39 38 41 41 43 35 27 31 35 32 31 31 32 37 40 40 40 41 41 39 39 38 38 39 39 42 50 49 51 54 57 50 51 54 57 59 57 54 57 55 51 49 49 48 48 49 46 45
39 44 41 39 43 33 31 35 33 38 34 31 30 32 34 37 37 38 41 40 40 39 39 39 41 52 45 46 58 54 52 55 56 55 49 49 51 51 53 54 52 50 48 47 48 44 40 38 36
46 44 39 41 44 38 39 42 34 33 33 32 30 30 31 33 36 35 33 35 35 36 38 39 41 48 42 38 45 47 44 49 47 48 49 47 45 49 49 54 54 47 47 45 42 42 38 33 30
44 45 39 41 42 39 41 47 36 32 31 31 30 30 31 30 30 31 32 31 34 35 37 39 40 38 36 35 39 39 38 37 43 45 46 48 48 47 46 58 50 47 47 45 44 40 33 27 25
38 42 40 41 40 43 45 52 49 44 42 39 30 30 30 31 32 32 32 31 30 30 30 33 34 33 36 34 36 46 39 35 37 40 47 49 47 45 41 49 47 53 48 41 37 32 24 21 22
38 41 38 34 39 42 47 48 49 48 42 37 33 29 28 29 27 30 32 32 31 31 29 30 34 33 36 37 38 37 35 35 37 39 40 39 40 42 45 44 40 37 30 25 22 20 20 21 22
36 39 36 34 37 41 44 46 47 48 36 31 26 25 28 30 29 30 31 33 31 30 29 30 31 32 30 28 30 29 30 32 32 32 35 36 33 34 39 31 28 27 22 20 20 17 18 22 26
32 31 37 38 39 44 47 49 43 47 38 35 32 29 27 29 29 28 28 31 29 29 28 28 28 28 24 20 20 22 22 20 21 24 25 25 25 27 31 28 25 20 17 17 17 20 22 27 31
29 27 31 34 41 46 50 56 50 48 43 44 45 41 37 32 31 28 27 29 28 28 28 29 26 23 20 18 19 21 20 17 16 18 18 18 26 27 24 19 14 15 18 20 20 22 26 30 31
23 24 29 33 41 46 42 56 52 48 46 47 45 45 41 30 28 26 27 29 28 27 28 25 25 25 24 24 19 18 20 20 18 15 16 20 22 20 14 16 18 21 23 23 22 24 28 28 28
24 28 29 30 31 38 43 49 46 50 48 40 40 45 46 41 41 36 27 28 28 26 26 23 24 28 29 29 25 19 19 22 23 23 23 20 18 16 15 18 21 22 25 24 23 24 23 25 27
24 27 28 29 31 40 38 43 42 42 41 34 36 42 45 47 47 48 45 32 29 27 27 26 28 29 31 31 31 26 23 22 21 26 28 29 23 18 17 20 22 24 24 22 23 23 24 27 29
23 27 29 31 38 43 32 40 36 31 31 29 31 36 40 41 43 45 42 39 37 30 28 29 29 31 31 31 30 28 25 23 22 23 29 30 29 24 16 20 22 24 22 23 24 26 28 28 29
22 26 28 27 33 31 31 42 28 25 29 30 33 35 38 38 38 36 37 38 40 39 37 34 33 33 30 32 31 32 31 26 26 27 30 32 31 31 28 22 24 25 23 23 26 26 28 31 31
22 25 22 25 28 29 28 26 22 25 26 30 31 33 34 34 36 33 34 41 50 55 47 43 36 31 29 36 36 36 37 35 29 31 32 35 33 32 32 25 24 26 23 24 24 24 28 33 33
21 21 24 26 26 27 27 25 26 25 28 31 31 32 32 32 33 33 36 33 39 41 42 40 40 39 35 34 39 38 42 39 45 39 34 36 40 36 33 33 28 24 21 22 24 23 26 28 29
20 20 21 22 24 25 23 23 23 25 26 28 30 29 31 32 31 32 31 26 28 30 34 38 42 48 47 44 41 41 42 47 53 46 39 37 37 37 37 37 31 26 22 21 22 25 28 30 33
18 17 18 19 21 25 24 22 22 26 28 31 31 31 31 30 28 32 32 28 30 28 29 32 38 45 54 52 51 48 51 50 57 54 50 40 36 38 41 38 31 27 24 26 28 29 32 34 36

GFSSGP_prec_cthk_006.txt.gz
RH
56 57 47 49 47 63 71 71 71 71 72 75 73 75 80 80 74 75 77 82 85 87 88 83 82 81 79 73 65 64 59 54 50 49 46 44 42 41 40 39 38 35 40 41 41 41 43 49 55
59 55 46 49 38 46 50 56 66 72 70 67 68 73 76 75 69 69 74 75 79 79 79 78 77 73 68 62 56 54 50 47 47 46 45 44 44 43 44 45 43 42 42 43 43 45 47 48 53
61 62 54 50 41 43 42 44 54 66 68 64 64 68 72 69 65 66 66 66 69 70 71 72 68 62 56 55 50 50 46 48 46 47 46 47 48 50 51 53 53 51 48 46 46 47 49 50 51
62 61 59 45 38 36 34 35 42 56 63 62 60 62 62 61 60 59 58 56 58 59 59 58 57 54 52 52 50 49 46 48 48 48 50 50 49 50 52 54 55 55 54 55 50 49 48 51 52
58 56 49 47 44 42 38 34 38 45 55 61 58 60 59 57 54 55 54 52 56 56 55 54 54 51 49 49 47 44 45 46 49 53 54 53 53 55 57 57 57 55 55 57 59 57 50 48 52
54 53 50 47 49 45 41 34 38 41 44 49 51 54 60 57 53 54 53 53 55 55 55 52 50 49 48 49 48 46 47 48 53 58 59 58 57 57 60 63 64 67 60 59 59 57 54 54 51
53 52 55 54 60 52 47 43 39 39 38 40 44 46 53 54 53 52 50 50 52 54 54 52 47 48 49 49 49 49 49 52 56 59 60 61 64 64 67 73 66 67 64 62 60 59 62 55 53
53 49 53 51 55 54 49 47 45 39 39 37 40 43 45 47 47 48 48 50 51 51 49 48 47 47 53 55 50 50 52 54 56 57 59 64 65 68 64 77 67 62 63 64 64 69 70 71 64
56 56 53 53 51 49 52 53 46 41 37 35 35 34 38 42 43 45 45 44 45 45 45 47 48 50 51 53 53 54 52 53 56 56 59 67 68 66 64 69 68 67 62 69 67 67 69 72 72
51 52 48 46 45 50 52 52 43 44 37 34 35 32 35 38 39 40 41 41 41 43 46 48 48 52 55 57 59 55 59 56 54 56 59 60 58 62 63 59 61 61 64 70 67 72 76 68 67
44 44 40 38 40 43 47 54 44 42 38 31 32 30 32 37 39 39 38 38 39 42 47 49 47 49 49 49 48 50 50 50 51 53 53 56 60 60 58 58 59 58 56 57 56 62 66 67 68
43 41 36 36 39 41 39 44 44 34 33 30 29 27 31 33 35 37 37 37 38 38 42 45 44 45 47 49 52 51 53 50 48 48 51 57 61 62 57 56 55 52 48 47 47 47 50 50 47
36 36 34 33 33 39 40 36 40 35 33 28 26 28 31 32 33 36 37 36 36 35 35 37 39 40 42 46 50 54 54 54 56 53 51 63 67 63 62 56 53 50 47 45 44 43 42 40 38
32 35 39 37 34 37 39 37 34 35 33 29 26 27 29 31 34 38 39 38 36 36 35 34 35 38 41 54 57 56 54 52 53 51 51 51 57 56 57 55 50 50 47 43 43 42 40 38 34
34 40 38 37 36 40 43 42 35 34 33 32 28 29 30 33 35 32 34 34 34 34 34 34 38 50 44 47 55 52 48 48 50 51 48 51 51 50 53 58 53 50 44 42 42 40 38 35 31
39 39 42 40 37 42 48 47 43 41 38 34 31 30 31 31 32 33 33 33 34 34 33 35 38 39 43 41 44 42 40 39 40 48 49 49 49 45 46 60 56 48 46 47 43 40 36 32 27
38 37 44 43 39 45 52 52 51 47 43 40 30 29 29 30 31 31 32 33 33 32 34 34 37 37 37 45 45 43 40 39 38 40 42 44 44 43 43 43 43 44 44 40 33 29 26 23 20
34 40 42 44 43 45 48 51 51 47 40 40 30 27 28 27 27 30 32 33 33 31 32 32 32 35 42 40 38 41 35 37 35 36 45 40 38 38 38 41 53 45 34 27 23 18 20 19 20
30 38 38 44 44 45 49 52 54 50 44 39 31 25 24 23 23 28 31 33 31 31 33 31 32 34 35 29 28 30 29 32 34 32 34 34 35 37 37 35 36 26 24 19 18 18 16 18 21
28 35 40 45 44 50 53 54 53 53 46 41 37 28 25 24 26 28 31 33 31 28 28 30 31 31 27 25 25 27 30 30 29 27 26 27 29 29 26 27 27 22 18 15 15 15 19 22 26
27 26 34 40 47 49 53 55 55 55 51 46 44 41 38 30 29 29 27 27 27 26 25 27 28 27 23 23 23 25 26 22 19 17 17 20 20 22 25 22 18 14 14 17 19 19 21 25 26
27 23 31 37 41 46 46 50 54 52 51 45 40 41 40 38 30 27 25 24 25 25 27 27 27 24 24 24 24 23 22 22 21 19 18 17 16 19 17 13 14 16 19 22 22 22 24 25 26
24 26 31 37 40 42 47 47 37 49 53 44 38 40 38 40 36 37 34 30 25 26 26 27 25 24 27 29 27 26 23 24 25 25 25 24 25 23 17 15 18 19 22 23 22 22 23 25 27
22 30 34 35 39 46 37 39 34 45 39 39 39 39 40 38 39 35 39 37 32 28 27 25 26 26 29 34 33 30 26 24 23 24 24 24 27 26 24 19 20 22 22 21 22 22 24 26 30
22 29 33 33 45 46 36 42 28 29 33 30 34 35 39 43 40 37 43 39 32 26 27 25 25 27 30 33 31 29 28 28 25 24 25 28 29 28 27 27 24 23 23 19 21 24 26 28 28
21 27 31 33 38 39 40 41 27 23 29 33 34 35 37 37 40 38 40 41 44 38 34 31 29 29 34 32 30 30 31 30 32 29 27 30 31 31 31 31 31 26 23 21 21 25 26 28 31
21 25 27 33 33 33 36 28 22 23 25 29 32 34 34 35 34 34 35 37 40 45 45 42 37 34 30 31 33 35 34 37 37 39 41 41 32 32 33 34 35 31 27 25 23 24 23 25 27
22 21 27 32 33 34 32 27 26 22 22 22 29 30 31 33 32 32 35 37 40 42 44 47 44 36 34 35 33 32 34 37 40 41 46 49 43 36 36 37 37 34 27 25 22 21 20 21 24
20 21 25 28 32 32 30 29 23 21 21 22 25 26 28 30 29 29 31 31 30 36 38 38 38 38 37 37 38 42 60 48 46 42 46 52 52 50 41 36 35 37 30 28 22 22 25 27 30
14 17 20 25 28 33 29 24 19 18 19 23 26 24 28 29 28 28 28 28 29 28 29 32 36 43 39 44 46 60 36 65 46 47 54 53 56 50 48 41 38 38 35 31 27 28 29 31 35

GFSSGP_prec_cthk_009.txt.gz
RH
49 34 43 68 68 63 70 73 72 76 77 79 76 76 78 79 77 80 83 84 83 82 81 80 77 74 73 73 69 63 61 57 55 51 48 45 44 43 40 38 37 40 41 43 44 45 50 57 54
44 45 32 37 42 47 64 70 72 72 74 73 75 75 75 72 75 77 79 81 81 82 82 80 74 68 67 66 63 59 55 53 52 47 44 45 45 44 44 44 42 43 45 45 46 47 47 53 56
54 45 44 37 35 38 48 61 67 67 66 66 72 70 68 69 70 70 70 73 77 76 75 72 68 62 60 59 57 52 49 49 48 47 48 48 48 50 53 53 53 52 48 47 48 48 47 48 53
53 51 45 32 32 34 38 49 61 64 63 62 68 65 62 65 65 63 64 66 68 68 65 60 60 58 57 55 52 49 47 46 46 48 47 47 49 51 54 55 56 56 56 58 52 48 48 49 51
57 47 35 36 35 34 33 40 51 58 60 59 58 60 60 60 58 56 56 57 57 56 56 55 56 54 52 51 48 45 44 45 49 50 50 51 53 56 59 61 62 59 58 58 57 55 50 47 50
55 49 41 39 41 41 36 36 41 46 52 55 53 54 58 55 53 52 53 54 54 54 55 54 52 50 48 47 46 45 46 50 53 53 53 55 59 61 64 62 66 67 63 61 59 56 56 54 48
55 53 52 47 49 45 39 38 37 40 42 44 47 52 55 53 49 49 52 54 53 52 51 50 49 49 49 46 44 45 47 50 54 57 62 64 65 64 68 74 70 68 66 63 63 67 65 59 56
52 46 47 46 49 47 42 37 39 36 37 40 42 44 47 50 48 49 49 53 53 53 49 47 52 53 50 50 48 50 52 54 56 58 65 65 65 63 69 71 66 61 65 72 67 68 70 71 69
51 47 46 46 49 47 44 40 41 37 35 38 39 40 42 45 45 48 50 51 50 48 48 49 49 51 51 53 53 54 54 55 56 60 62 62 66 65 65 69 66 69 64 71 69 68 76 71 68
47 45 41 40 43 44 46 43 40 37 36 35 36 39 40 42 44 43 45 45 45 47 46 47 50 54 56 57 53 51 53 53 53 53 55 58 61 62 64 62 61 60 57 61 61 62 66 67 68
45 43 38 37 37 42 45 49 39 36 34 32 34 34 38 39 39 40 41 41 42 44 49 47 48 49 48 48 50 53 49 48 48 50 52 60 59 62 58 54 55 53 52 53 49 49 49 52 50
39 36 36 37 34 36 37 40 38 33 31 32 32 35 36 38 38 38 39 40 40 42 46 45 45 47 48 50 50 53 52 52 53 52 54 62 68 64 58 56 53 51 50 46 44 43 40 38 39
35 31 33 31 32 32 33 37 39 32 31 32 32 34 32 34 37 38 38 38 37 39 41 42 41 41 44 47 51 53 52 53 51 51 54 58 68 63 55 55 52 48 47 45 41 40 39 38 37
32 31 33 27 32 32 34 36 36 33 34 31 30 31 31 34 36 38 38 38 34 34 36 36 35 40 47 51 52 51 50 53 51 50 50 54 57 63 61 53 50 46 46 41 38 37 38 36 35
33 33 37 34 34 34 36 41 37 35 33 30 27 29 30 32 35 37 36 34 34 33 34 34 35 37 42 46 50 51 47 45 46 49 50 59 56 52 60 59 55 50 44 41 40 40 38 35 32
34 34 35 36 36 38 36 39 44 45 38 30 27 27 28 29 32 33 35 33 30 31 32 33 36 37 43 43 42 48 44 45 43 52 55 55 57 53 50 54 52 44 40 39 40 38 32 27 24
32 32 38 35 40 41 40 40 44 48 44 41 30 24 26 28 30 31 30 30 31 31 31 31 33 34 38 47 45 45 43 41 42 37 39 46 43 44 47 45 45 39 41 39 34 29 23 18 17
29 34 36 34 41 45 47 45 49 48 45 40 36 29 26 25 25 28 28 29 29 30 30 31 31 35 41 51 50 48 42 44 42 36 37 38 44 44 37 38 35 37 43 32 24 22 19 17 16
27 33 36 42 43 44 47 48 51 52 51 48 34 30 27 23 25 28 29 31 32 31 28 28 29 31 40 34 34 33 32 35 34 36 38 40 38 35 35 40 39 32 27 24 21 18 16 20 18
27 34 36 42 45 45 49 48 49 52 52 48 45 37 28 26 28 26 30 30 30 30 29 28 28 29 31 33 27 26 25 25 25 25 23 24 27 29 29 26 24 24 21 16 14 16 20 22 23
26 27 35 37 46 48 49 46 49 49 52 51 47 41 39 32 25 24 29 29 29 28 27 27 26 24 25 25 24 23 22 20 20 22 21 21 23 23 21 21 22 18 12 14 16 18 19 28 28
22 22 28 38 43 45 47 40 44 48 50 47 43 41 38 37 31 28 28 28 26 25 26 27 28 25 23 25 25 25 24 27 27 24 21 21 23 18 20 21 16 13 15 16 17 18 19 21 25
24 25 27 33 42 42 43 42 35 43 45 43 42 38 37 33 33 33 33 26 25 23 24 26 27 26 25 25 27 26 26 28 26 24 22 22 23 23 24 21 16 18 20 20 19 19 19 20 22
29 29 29 34 42 41 32 35 28 35 31 33 41 40 37 36 32 33 31 33 35 32 28 25 25 25 26 27 28 27 25 25 24 24 24 26 26 27 27 24 24 24 23 23 19 19 20 22 25
29 32 35 35 41 35 31 36 25 25 27 29 35 40 40 39 38 32 31 29 35 32 28 24 24 24 26 28 31 30 29 29 27 25 26 26 27 27 28 28 27 28 28 23 20 20 23 23 25
28 28 32 38 35 32 36 32 23 25 24 26 31 37 41 39 38 38 33 28 31 33 27 25 22 24 27 32 34 30 32 32 31 33 33 32 34 31 30 27 29 32 31 25 22 22 23 24 25
28 29 27 30 33 30 29 27 23 23 23 25 28 32 33 36 38 38 35 33 34 33 28 27 29 28 29 32 31 34 36 36 34 35 37 35 41 47 42 31 31 32 33 27 24 24 24 23 23
24 26 29 29 35 36 30 27 20 22 21 23 26 27 29 31 35 35 32 34 38 36 32 30 31 29 31 31 31 32 32 31 37 43 40 39 39 44 50 49 43 36 36 31 27 25 24 24 23
25 25 29 27 26 29 30 24 22 21 19 19 20 21 25 28 32 32 30 34 34 34 34 30 35 37 34 32 35 37 37 45 56 46 49 49 45 55 50 52 48 46 41 38 32 26 25 28 31
21 24 24 27 27 24 25 25 20 21 20 18 17 16 24 26 28 30 31 34 33 34 32 34 38 40 41 41 41 43 43 44 53 59 53 56 40 52 56 54 51 49 47 48 42 36 30 34 37

GFSSGP_prec_cthk_015.txt.gz
RH
65 68 78 92 91 74 68 65 73 74 74 69 73 84 88 87 83 86 88 85 88 86 82 77 77 72 68 63 59 54 50 48 48 46 44 44 44 41 36 35 38 38 40 42 46 53 53 57 65
55 68 83 84 66 84 67 66 70 75 69 69 69 75 81 85 77 80 84 83 84 82 79 72 64 62 58 55 53 51 49 46 44 43 42 42 40 38 35 38 41 41 41 43 44 49 51 53 59
45 58 73 62 59 64 64 64 63 63 68 70 67 72 74 80 79 79 81 81 77 77 73 63 59 56 56 53 51 51 46 43 44 44 45 45 45 47 48 48 47 44 43 44 44 43 47 51 52
41 64 57 42 46 55 62 60 58 62 65 65 66 69 74 76 77 77 79 78 74 70 66 59 58 56 53 51 47 45 43 43 43 43 43 44 46 49 51 52 50 49 49 46 45 45 44 47 51
56 63 53 35 37 46 59 57 59 64 62 61 62 64 66 70 70 74 76 74 71 62 61 57 55 52 50 46 43 44 43 43 43 45 46 48 53 55 56 57 55 55 52 52 52 50 48 44 48
65 54 50 37 31 37 47 54 57 59 61 59 61 60 62 64 66 70 68 67 63 61 60 53 49 48 45 40 40 41 43 44 45 48 51 54 56 58 57 58 61 60 58 55 60 59 56 49 50
68 58 49 37 33 33 38 45 52 52 55 56 57 60 57 57 58 60 60 61 60 58 58 52 49 43 41 39 41 43 45 46 50 53 56 56 58 59 59 61 56 57 62 66 64 62 63 64 62
63 49 37 46 45 29 30 41 41 48 58 53 57 56 54 55 55 58 61 58 59 60 52 51 49 47 45 43 43 45 46 51 55 55 57 59 59 60 61 63 63 58 60 66 64 64 69 66 66
54 57 44 41 51 46 28 37 35 44 37 44 58 56 55 52 56 57 60 56 55 55 49 54 53 50 50 52 48 46 47 54 55 56 55 56 66 65 61 59 54 55 53 54 51 51 54 61 65
49 62 50 39 44 50 34 36 33 36 36 41 46 54 52 52 51 52 55 55 53 51 52 65 57 57 53 57 48 49 50 51 51 55 58 54 67 58 55 52 47 45 44 42 41 41 44 46 51
42 58 51 39 40 54 38 41 38 42 37 40 43 45 46 48 49 51 56 52 50 47 59 58 59 59 52 53 49 52 54 55 55 57 58 59 62 64 58 63 60 51 48 60 49 49 48 51 45
31 39 38 38 42 47 46 48 39 37 45 37 42 41 41 45 49 49 53 52 55 53 57 58 53 53 54 54 54 59 61 60 60 58 57 59 59 64 61 61 62 58 60 53 52 51 49 45 43
33 36 32 33 34 39 49 48 46 38 30 32 37 37 37 40 45 47 51 50 53 53 54 53 51 49 50 57 54 63 58 55 59 59 56 59 62 66 63 59 53 56 53 52 54 50 48 44 51
31 31 32 33 33 33 47 46 41 37 29 31 34 34 36 40 41 44 45 47 50 51 51 50 48 44 46 49 52 53 55 61 55 59 59 55 60 68 62 63 57 54 53 50 52 54 51 47 45
30 30 35 27 31 33 39 35 36 36 32 30 31 34 35 38 39 40 42 43 43 44 44 44 44 49 49 49 49 48 53 51 54 57 59 62 66 60 60 62 57 54 49 52 53 58 49 46 36
29 31 34 32 30 33 33 38 29 35 35 34 30 33 33 35 36 37 35 35 37 39 40 40 40 44 46 49 46 49 52 57 64 62 69 60 64 57 52 52 54 53 52 54 58 51 49 37 37
31 30 31 40 28 36 34 70 36 34 34 34 30 31 31 33 36 34 33 34 35 38 38 36 41 43 43 42 46 43 46 62 57 57 51 60 49 49 50 51 54 48 49 51 46 49 44 33 30
32 31 29 40 35 40 27 57 39 38 40 35 32 28 28 30 29 32 32 34 35 37 36 34 36 38 37 38 57 63 62 55 51 49 56 51 49 46 47 50 49 46 48 43 50 41 28 23 30
28 29 29 33 36 32 40 46 39 42 42 42 37 29 28 26 29 33 31 33 33 35 35 32 33 33 33 48 55 56 53 50 50 46 54 42 42 42 46 44 45 40 37 47 35 27 24 26 36
27 28 27 33 34 38 39 43 44 43 42 43 40 34 29 29 28 30 32 30 31 33 34 30 31 30 29 43 45 46 50 44 43 39 40 41 41 36 38 35 37 37 39 28 25 19 22 32 35
27 26 26 29 36 46 39 45 41 44 43 41 42 44 35 31 28 28 30 28 30 31 29 28 28 29 31 35 41 48 47 39 43 39 38 32 31 32 31 36 31 31 23 26 24 27 23 32 34
25 26 27 27 39 46 35 36 42 36 43 40 40 40 41 39 36 36 32 31 29 30 32 30 28 27 30 34 39 42 40 36 36 35 38 36 29 27 30 30 29 25 26 27 26 27 25 22 35
20 25 27 27 30 45 33 33 35 40 37 40 37 39 40 40 41 39 37 38 32 31 34 32 29 28 28 28 33 38 36 34 39 36 35 29 29 27 31 27 31 25 20 27 29 24 20 30 29
17 25 27 25 27 34 37 36 35 43 37 40 39 38 39 41 40 42 42 42 39 38 36 37 32 26 23 27 27 29 39 35 38 38 34 30 31 28 29 32 32 30 28 34 29 27 27 25 28
15 22 27 28 27 28 31 31 45 34 33 35 35 40 40 38 37 37 39 38 35 33 37 41 37 29 27 25 25 24 29 35 36 36 33 34 35 37 36 34 36 36 33 38 35 30 32 28 31
11 15 22 30 27 26 26 30 28 36 33 33 33 31 37 41 37 37 35 33 35 36 32 34 33 29 28 29 25 26 30 36 32 35 38 36 40 43 45 46 53 48 48 47 43 37 34 39 33
10 13 18 23 24 26 24 25 30 33 34 33 32 30 33 41 39 35 31 34 36 29 28 30 32 27 25 27 25 30 34 32 35 37 37 44 47 55 56 53 54 53 49 53 54 49 47 48 46
9 11 18 24 28 29 23 24 28 29 32 32 32 30 32 37 38 34 34 34 37 33 30 28 32 28 24 27 28 31 32 34 35 40 42 45 51 52 60 55 52 54 50 59 57 57 57 55 53
11 9 17 21 24 25 27 26 22 28 34 29 30 27 30 35 37 36 34 34 38 36 30 30 31 30 27 25 26 27 33 39 36 36 41 43 47 59 54 55 60 61 62 61 57 59 60 64 57
16 13 15 22 27 25 24 22 24 24 28 28 28 28 30 31 35 34 36 35 33 35 35 30 31 28 25 23 24 30 35 37 40 40 46 47 44 50 49 50 54 57 60 64 67 67 61 64 62

GFSSGP_prec_cthk_021.txt.gz
RH
81 82 83 87 88 89 90 84 80 71 76 75 76 79 79 78 76 85 86 85 84 84 81 78 74 69 64 60 55 47 45 43 42 41 41 39 33 32 34 35 35 38 42 45 45 49 52 55 59
78 81 80 83 93 92 80 67 71 70 72 71 71 76 77 80 75 80 84 82 78 74 71 68 67 60 55 48 45 44 44 42 41 39 37 34 31 35 38 38 38 40 41 44 45 44 49 52 54
76 83 85 85 78 83 75 66 77 83 68 69 68 66 70 76 75 77 75 74 70 68 66 63 59 53 46 42 42 42 42 41 40 40 38 38 40 44 45 45 43 42 42 42 43 44 44 48 50
85 95 97 86 65 66 62 62 63 70 65 62 63 64 69 72 70 67 67 64 60 57 56 55 51 46 43 42 40 40 40 41 42 41 40 43 46 48 48 51 50 48 47 46 46 42 42 49 52
90 81 77 83 63 50 56 62 77 65 67 61 61 67 68 69 65 66 62 58 55 52 48 46 46 44 43 41 39 39 41 41 41 42 44 48 51 50 56 56 55 51 50 53 52 49 46 54 55
70 78 78 72 59 63 46 51 69 60 60 61 59 62 65 66 66 65 59 56 52 47 46 46 45 44 41 40 39 39 40 42 44 48 51 54 54 56 58 56 57 59 62 61 56 57 58 58 57
76 79 77 60 50 55 57 65 69 64 51 58 52 57 64 68 65 60 54 54 53 49 45 44 43 40 39 39 40 42 42 44 47 49 53 56 56 57 62 61 61 62 63 60 59 60 63 64 64
69 74 72 62 56 48 57 55 50 63 55 53 48 54 56 59 57 55 57 54 51 47 43 42 40 37 39 40 41 43 44 47 49 51 53 55 62 61 61 58 53 50 52 50 48 50 53 56 54
67 75 72 58 52 49 53 50 48 58 50 54 51 49 44 48 52 51 55 55 51 45 41 40 37 37 38 38 40 43 45 47 48 49 51 53 55 61 54 51 46 41 38 42 40 40 39 43 44
63 63 59 53 51 49 49 50 45 49 49 51 54 61 50 46 50 47 48 48 50 43 41 40 38 37 36 36 37 41 44 45 45 47 47 61 57 58 52 50 42 43 48 53 42 41 53 38 31
56 51 47 50 50 50 47 47 43 37 46 44 39 49 50 47 51 47 43 39 40 42 46 43 39 38 37 35 36 39 41 43 44 45 48 46 68 47 56 61 54 49 48 52 52 49 38 38 36
49 44 39 45 43 45 43 44 49 43 41 47 43 45 43 47 48 42 44 38 42 46 51 46 40 36 36 36 38 37 44 46 47 50 52 48 50 54 61 54 52 51 45 45 44 44 41 47 41
41 39 34 37 42 41 37 47 52 47 40 40 45 40 45 44 43 43 42 37 39 43 45 44 42 40 37 42 44 45 45 50 53 56 54 52 50 56 60 50 52 47 47 46 52 52 44 43 38
33 34 31 32 39 39 40 44 49 51 43 38 38 36 38 41 46 44 41 38 40 42 39 44 44 42 37 46 43 50 52 51 48 52 58 62 55 58 57 55 53 51 47 50 53 47 44 42 38
31 33 32 31 30 38 44 55 54 53 40 37 38 33 35 38 42 46 40 40 42 40 38 39 40 40 35 38 38 41 47 48 50 52 56 63 56 55 52 53 50 46 46 52 54 56 47 43 40
29 29 30 30 33 35 41 54 53 51 39 37 37 31 34 38 37 38 44 42 43 37 35 38 40 36 36 35 36 36 40 47 53 55 58 58 56 52 48 50 47 47 56 47 47 51 44 39 27
26 24 26 30 33 36 36 42 44 46 41 35 34 32 32 36 38 38 39 40 37 34 31 31 31 33 32 32 33 36 39 45 46 47 47 48 47 49 46 39 42 42 51 43 45 41 42 35 23
22 21 23 29 33 37 41 39 39 43 40 34 33 31 29 31 34 34 33 36 35 33 32 31 29 28 32 31 37 41 40 41 40 44 54 62 53 56 46 48 43 46 45 37 37 38 36 19 22
23 21 25 27 31 41 42 43 43 42 38 30 30 31 29 27 28 33 33 31 32 30 29 28 28 26 29 29 37 41 46 44 44 42 43 40 48 48 41 39 37 41 36 34 31 26 20 22 24
24 20 25 29 34 40 44 43 42 41 31 36 32 33 27 27 26 27 30 31 29 27 27 28 27 26 27 28 34 37 37 43 39 37 37 45 42 40 35 33 30 32 32 28 27 22 14 23 29
22 21 24 30 38 39 49 48 47 42 42 45 38 39 33 25 24 24 25 26 26 25 24 24 25 27 25 26 31 33 38 38 41 39 38 38 34 36 30 30 29 28 28 27 25 20 20 25 26
19 21 24 29 34 41 45 54 53 46 47 50 45 42 35 30 26 23 23 25 24 23 23 23 24 26 26 25 27 29 28 34 41 41 32 32 31 28 26 23 24 28 31 33 23 21 20 26 28
12 22 23 28 29 35 38 48 50 45 50 47 48 46 40 35 31 28 27 24 24 25 24 22 23 25 24 25 24 26 25 28 40 36 32 31 32 27 22 22 24 29 30 31 30 27 24 29 29
9 16 21 26 28 33 35 43 47 49 47 46 45 47 45 44 35 33 34 34 33 31 30 27 23 24 25 24 23 21 24 29 31 29 27 29 27 25 24 25 28 29 38 42 42 41 39 41 40
9 12 19 26 29 31 30 36 36 39 41 39 39 47 47 49 44 40 40 36 33 33 33 34 30 25 27 26 24 21 23 28 26 28 28 26 26 24 28 36 42 40 44 42 46 47 49 52 57
10 10 14 23 23 26 26 32 29 27 30 36 40 44 46 50 42 45 39 35 32 35 33 33 33 32 30 29 27 24 26 29 31 28 30 27 26 28 33 35 41 42 44 43 48 53 56 56 58
11 10 10 15 18 25 21 24 24 26 26 35 40 41 45 41 52 48 42 37 33 33 32 32 30 30 29 28 28 28 27 28 31 27 28 30 32 35 43 45 47 50 47 46 51 53 58 59 63
12 10 13 12 16 19 16 23 22 25 25 29 36 39 37 41 39 44 43 37 32 28 32 32 31 30 30 28 25 22 21 27 28 27 30 35 39 41 42 43 48 49 51 46 47 50 54 59 63
13 11 12 12 12 16 21 16 18 24 27 31 33 30 31 37 35 41 39 37 30 28 32 33 31 31 32 30 24 20 19 24 25 26 29 38 41 42 43 44 45 48 50 50 48 49 50 54 59
15 13 13 14 15 17 16 14 16 21 26 29 27 27 30 32 37 36 37 39 34 25 28 30 31 32 28 30 26 20 21 22 23 27 32 35 42 42 39 41 46 50 52 53 50 50 48 49 56

GFSSGP_prec_cthk_024.txt.gz
RH
79 82 84 84 92 88 89 83 78 74 74 72 72 72 75 77 75 82 84 84 86 90 85 84 77 69 63 56 49 44 42 42 40 39 40 33 33 32 34 35 37 40 42 44 48 51 53 57 65
79 80 86 83 90 83 77 76 79 73 68 69 71 73 75 76 76 79 79 81 82 78 77 74 72 65 55 46 42 41 40 39 38 37 33 31 36 38 37 37 38 38 42 43 44 48 50 50 58
81 80 78 92 83 74 70 77 73 68 68 64 68 69 73 76 73 75 73 73 72 69 68 65 59 54 46 41 40 40 38 37 37 36 36 39 43 44 44 42 41 41 43 45 43 46 49 51 52
87 81 81 88 75 65 71 76 72 64 66 64 62 68 71 73 73 68 64 64 63 62 60 56 49 41 39 40 39 39 39 39 39 39 42 46 47 47 52 50 48 48 50 48 43 44 50 52 52
83 88 83 92 84 66 58 68 65 66 63 62 57 67 68 71 68 62 58 58 56 55 53 48 41 39 38 38 38 40 40 41 42 44 50 50 49 56 56 55 52 55 54 57 56 52 56 56 60
71 71 78 80 72 67 66 60 67 66 57 62 58 61 65 65 62 55 52 49 49 46 44 42 42 40 38 38 38 39 42 44 47 49 52 53 55 57 56 58 62 65 64 61 61 62 63 64 63
68 67 64 72 74 74 70 63 56 64 53 52 53 59 63 65 61 54 50 48 46 42 41 41 40 39 38 38 40 42 45 46 48 52 54 54 57 63 61 60 59 62 61 60 62 65 67 66 69
64 62 60 59 61 66 62 61 53 46 57 50 47 52 57 57 56 53 51 49 45 43 42 41 39 39 40 41 42 44 46 46 47 50 52 56 58 59 55 50 46 46 44 45 47 48 49 51 56
64 62 60 54 50 54 61 57 57 52 49 54 52 44 46 47 48 49 50 50 46 42 42 40 39 40 41 42 44 44 45 44 45 46 48 51 53 54 49 44 39 40 43 44 41 44 49 50 49
63 62 58 52 50 54 54 56 52 54 44 42 53 59 47 47 47 47 46 44 44 40 41 38 39 38 38 40 43 44 44 42 41 46 51 57 55 52 53 48 42 48 48 51 55 50 43 41 39
57 55 54 53 56 52 53 57 52 56 43 39 37 43 45 42 47 47 44 40 38 39 39 38 37 36 35 35 37 40 39 39 39 42 45 54 60 54 58 51 53 50 56 53 50 45 49 44 39
49 50 51 51 53 52 53 54 52 50 37 40 39 34 38 40 43 42 41 36 37 41 39 36 36 33 33 33 35 38 39 41 41 46 46 51 51 53 55 56 53 48 49 50 54 48 47 45 43
39 41 46 54 50 51 51 52 50 55 46 44 42 37 37 40 39 39 39 36 36 40 40 36 34 32 34 34 38 39 44 48 51 50 50 48 50 49 52 50 47 48 53 51 53 48 48 42 38
38 38 42 46 42 49 46 50 48 51 48 47 44 37 33 37 39 42 41 36 39 40 37 38 38 34 34 36 38 42 47 49 52 54 52 54 54 58 55 51 48 49 49 56 60 53 49 44 42
35 33 32 34 33 42 47 48 49 50 55 45 42 41 29 34 39 40 37 37 40 37 38 35 35 37 33 33 38 41 47 51 49 50 56 59 55 54 53 48 46 47 47 51 52 55 52 46 34
31 29 28 31 36 43 40 47 47 42 52 50 43 43 31 31 35 38 36 40 39 38 38 36 39 36 34 35 36 40 45 48 53 53 59 59 56 52 50 48 45 45 45 54 45 46 42 41 33
31 29 27 29 34 43 44 48 48 44 44 52 51 41 31 28 33 34 35 39 37 36 36 36 35 35 35 36 34 36 45 48 49 50 49 48 53 49 52 45 45 45 45 46 36 34 35 35 24
29 28 25 27 32 38 42 45 46 50 49 49 45 38 29 21 25 30 32 37 35 33 32 33 32 31 33 35 36 36 42 42 41 42 47 58 56 53 52 45 43 40 40 35 31 32 28 24 23
31 31 26 28 29 36 42 43 44 50 52 50 44 35 30 22 18 26 30 33 35 34 31 30 30 30 31 32 38 42 39 43 40 41 45 45 46 46 44 42 33 33 32 30 27 26 21 19 24
28 29 26 25 25 34 43 41 43 47 48 44 42 40 31 30 20 21 25 27 28 28 28 28 28 29 29 30 33 37 39 37 39 41 38 38 41 45 39 33 28 28 29 27 25 25 14 20 23
21 26 25 26 27 37 46 46 47 48 51 47 44 38 35 32 28 20 22 24 25 24 24 24 24 26 26 28 29 35 38 32 35 37 35 35 39 32 33 31 28 26 24 27 25 26 22 25 25
18 21 25 28 30 41 47 52 50 48 50 46 45 44 41 34 32 29 23 20 22 21 22 22 22 24 25 26 26 27 28 34 33 40 36 30 29 34 28 26 24 24 28 33 34 33 32 37 38
12 20 28 29 30 35 36 50 41 43 45 47 44 43 44 41 37 34 29 30 24 21 21 22 22 23 23 24 23 24 26 27 28 35 37 29 30 30 27 27 21 26 37 45 43 39 42 48 54
10 14 23 29 31 36 31 36 38 41 42 40 43 44 42 43 43 39 34 36 36 31 30 28 27 23 22 24 23 22 22 23 25 28 34 29 27 24 26 27 26 36 40 45 43 44 46 51 56
11 11 17 25 31 29 30 36 30 33 37 36 40 39 40 43 45 46 38 39 37 33 32 32 33 32 24 22 25 24 21 21 22 25 30 26 23 23 27 39 39 40 44 44 45 47 51 53 57
12 11 13 20 27 30 28 34 24 27 31 35 37 39 41 44 45 47 44 36 35 34 34 32 35 36 34 26 25 27 26 21 22 28 30 22 21 22 35 37 40 41 45 45 45 49 51 54 54
12 12 10 12 16 23 22 25 21 23 32 31 35 41 40 42 45 42 39 35 33 34 32 29 31 32 32 30 27 28 27 25 23 31 26 24 22 29 39 38 39 41 43 43 45 46 49 51 51
13 12 13 12 12 14 15 20 20 20 22 27 29 34 39 41 41 36 41 40 36 35 33 32 30 29 29 30 26 26 25 23 25 31 24 24 27 38 38 38 42 44 46 48 45 46 48 48 50
14 14 13 12 12 12 15 10 11 14 21 25 28 28 31 34 37 38 36 36 37 37 34 32 33 31 29 29 30 25 23 23 23 25 24 28 33 35 38 42 41 45 50 52 51 48 49 49 51
15 15 14 14 14 13 10 8 8 9 19 25 26 29 33 33 35 40 36 37 39 39 36 32 31 32 29 30 32 26 21 22 22 22 24 31 36 38 37 39 41 45 50 55 56 55 52 51 48

GFSSGP_prec_cthk_027.txt.gz
RH
79 82 83 87 94 92 89 79 75 75 76 80 79 74 78 82 78 82 85 86 89 88 88 82 80 72 61 57 47 44 45 43 42 41 35 33 34 35 38 42 44 44 44 48 51 53 57 63 65
77 78 84 81 85 90 85 75 72 73 72 75 76 77 77 80 81 82 85 83 83 84 83 76 74 64 54 49 44 44 42 41 41 35 32 35 37 37 39 42 43 44 43 43 47 50 50 56 60
76 75 75 78 80 85 85 77 69 68 66 70 71 76 75 78 80 80 80 79 78 78 74 69 64 55 45 43 42 42 41 40 36 32 38 41 42 44 44 42 42 44 43 42 46 47 50 51 55
72 72 75 76 80 75 72 65 64 64 65 67 67 74 75 76 75 75 73 71 70 69 66 61 55 44 41 41 41 41 39 38 38 40 44 44 48 53 50 47 47 48 45 42 46 46 47 49 52
72 74 84 75 65 60 68 72 66 59 61 61 64 72 73 73 70 68 66 63 64 61 56 52 46 41 40 40 41 41 40 39 42 47 48 48 56 56 54 54 57 57 57 53 53 52 53 53 53
73 75 82 76 64 61 67 65 64 62 57 58 62 67 72 68 63 60 58 57 57 54 49 42 40 41 40 40 41 41 42 45 47 51 52 54 57 56 58 61 64 61 59 59 59 60 62 67 67
72 71 71 71 65 62 62 62 58 50 51 53 55 62 68 62 57 53 52 53 51 48 44 41 39 38 39 40 41 43 45 48 50 54 53 57 62 61 60 56 56 54 51 49 47 49 52 55 60
68 65 70 66 65 59 58 61 60 53 50 48 50 56 61 57 51 48 49 48 45 43 42 40 39 37 38 40 42 45 46 46 49 52 54 57 56 53 51 45 43 40 39 39 43 50 50 49 52
67 70 66 58 55 52 56 61 59 51 44 44 47 45 49 49 48 49 47 46 43 42 42 40 39 40 40 40 43 44 43 44 45 46 48 51 55 47 43 43 42 43 43 45 46 49 45 41 43
72 68 58 54 52 51 56 57 61 52 41 39 51 45 43 44 45 45 44 43 42 41 40 39 41 41 41 42 43 44 42 42 43 47 52 51 56 55 55 53 52 48 48 48 47 50 42 40 36
63 60 54 54 54 57 56 58 60 62 55 38 36 41 45 44 45 44 44 42 39 40 38 40 39 38 40 41 42 40 38 39 44 48 51 58 60 59 54 52 56 54 51 49 49 45 42 42 39
57 53 52 49 53 60 61 57 55 59 55 36 31 32 36 38 42 42 40 37 37 40 39 39 38 35 36 37 37 36 36 37 40 47 54 54 54 56 58 56 51 48 51 56 50 45 45 40 41
53 49 47 47 57 58 59 60 55 53 53 43 37 36 32 36 39 37 35 34 36 41 38 37 34 32 32 34 36 38 39 42 43 48 51 53 52 50 52 51 49 52 52 54 56 52 49 41 36
40 42 41 38 39 45 54 57 61 58 59 59 41 39 30 34 35 37 38 33 39 39 35 34 32 33 33 33 36 38 43 49 51 51 54 56 55 59 55 58 51 53 52 57 58 54 52 43 40
35 35 34 33 32 33 40 53 51 53 54 57 42 42 32 35 37 35 34 32 39 36 37 33 31 31 32 32 35 36 44 50 52 54 59 59 58 60 57 58 49 49 47 56 51 49 48 44 41
34 31 33 34 31 28 35 49 50 50 53 56 57 48 36 32 35 34 33 33 37 37 39 36 35 32 31 29 33 37 40 46 53 52 60 58 55 54 57 55 47 46 45 46 45 40 38 39 38
32 32 33 31 30 36 36 46 51 53 54 56 54 47 42 30 34 34 32 35 38 39 40 40 36 35 35 31 34 41 43 47 53 55 54 52 50 55 54 50 45 46 45 41 39 34 32 34 33
31 31 32 32 29 37 41 45 51 53 54 55 48 41 43 30 27 29 29 34 37 41 41 41 38 37 37 36 35 39 44 43 45 45 46 52 49 53 54 50 44 39 38 33 31 30 26 25 20
29 31 33 32 29 28 36 42 51 52 54 56 52 42 39 32 20 26 29 31 33 38 38 36 36 35 34 37 41 40 42 42 42 44 45 44 53 49 46 44 42 33 30 30 28 28 27 19 24
28 30 32 31 30 30 33 38 46 54 51 50 46 47 38 33 28 22 25 30 27 26 29 31 31 32 31 32 36 38 40 41 41 43 42 40 43 42 43 42 34 30 29 30 29 30 29 26 30
22 26 31 30 32 33 34 40 44 51 55 54 48 46 43 36 30 26 18 20 22 23 23 23 25 28 30 30 32 35 40 38 37 34 36 38 38 38 39 34 32 29 29 33 35 39 39 45 45
19 21 31 30 32 32 35 49 44 51 52 50 50 51 48 40 34 31 28 21 16 16 18 21 23 26 29 30 29 30 31 32 30 31 39 37 33 39 32 29 27 30 36 38 44 49 50 49 53
13 20 29 30 31 31 31 41 44 48 52 48 44 49 49 50 41 34 30 24 19 14 16 18 21 25 27 27 27 27 29 28 32 32 35 35 30 29 32 28 30 37 40 45 49 48 47 49 53
11 16 23 32 33 34 26 33 32 44 43 41 41 46 44 46 48 38 33 35 34 30 22 20 21 23 24 24 24 23 25 27 28 30 29 31 30 27 27 28 37 38 41 46 48 49 47 50 54
12 15 24 29 33 25 26 31 24 35 35 34 35 41 41 43 44 48 42 45 38 32 32 28 27 26 25 24 24 23 23 26 24 25 26 27 30 24 23 33 41 40 42 46 48 46 46 48 48
13 13 20 22 26 23 24 27 19 25 29 33 37 37 40 41 43 46 46 44 42 34 32 30 29 30 33 31 26 24 26 26 24 22 24 26 29 21 26 36 42 44 44 44 44 42 43 44 45
14 15 11 14 17 21 22 18 18 22 27 31 33 34 38 40 41 43 44 42 39 36 32 32 31 30 30 33 35 28 26 27 26 23 24 28 27 20 31 38 43 44 42 44 43 44 44 46 49
13 12 14 16 18 18 15 16 17 19 23 26 29 29 31 35 38 40 42 39 41 36 32 34 32 31 30 31 32 31 25 24 24 27 26 27 22 22 34 41 44 43 41 42 44 45 46 49 45
15 14 14 14 15 14 14 11 9 13 18 24 28 27 28 30 30 36 41 42 41 41 36 34 35 34 33 32 32 33 29 25 25 26 26 24 20 25 36 38 41 40 42 45 48 51 50 49 48
14 14 16 17 14 13 10 10 8 7 9 16 21 23 23 23 26 30 38 42 44 41 41 36 35 37 35 32 33 34 33 26 22 24 27 21 21 31 32 38 40 42 45 48 49 51 54 53 48

GFSSGP_prec_cthk_030.txt.gz
RH
78 82 83 86 94 90 88 82 81 76 79 83 82 79 80 84 83 86 91 94 93 91 88 89 83 72 63 51 44 45 42 40 39 34 33 34 36 40 42 42 42 43 47 54 52 54 60 65 69
80 82 83 83 88 88 80 72 73 73 76 79 79 80 80 83 83 83 88 90 89 87 86 85 72 59 49 42 42 42 40 39 35 33 35 36 37 39 40 42 43 41 42 47 49 51 55 64 68
79 78 76 81 84 82 76 68 71 69 70 73 76 78 79 82 82 82 82 80 83 81 80 75 62 52 42 40 42 40 38 37 32 37 40 41 44 41 40 42 42 39 41 44 46 47 52 53 58
76 73 77 80 77 69 65 67 65 68 69 69 72 77 79 81 80 79 76 76 75 71 71 61 51 43 40 41 39 38 37 36 38 44 45 50 52 48 46 47 46 43 43 46 47 46 48 52 55
78 71 69 69 72 63 65 62 59 62 65 67 68 75 78 79 77 75 69 71 68 64 60 51 41 38 38 38 38 39 40 42 47 48 50 56 55 52 54 56 59 57 54 57 57 58 57 58 63
76 75 76 72 65 64 62 60 58 57 63 63 65 69 76 71 71 68 64 65 62 55 49 45 39 38 38 40 40 42 44 46 51 54 55 57 55 56 59 60 58 57 58 59 61 62 65 64 64
72 76 69 66 62 60 60 57 53 57 56 58 59 66 70 66 64 62 60 60 56 51 44 42 38 37 40 41 43 44 47 49 54 54 58 60 59 55 49 48 47 47 46 45 49 50 52 52 53
68 72 70 64 63 62 60 56 45 48 49 51 55 61 64 60 57 55 55 54 50 45 41 39 39 40 41 42 45 47 49 51 54 53 55 58 49 47 42 40 38 38 39 40 44 45 46 45 40
68 68 61 60 61 62 59 58 55 49 44 48 48 51 54 53 51 51 50 48 44 42 39 38 38 41 41 42 44 45 45 47 48 48 51 55 45 44 43 41 39 42 46 49 46 45 43 37 36
69 69 59 50 55 58 64 59 57 55 46 41 48 43 45 45 46 46 44 41 40 40 38 38 39 40 40 42 44 44 43 43 45 47 49 52 52 54 51 48 48 48 47 54 48 43 45 40 36
68 66 57 50 50 55 63 65 64 59 51 38 39 43 42 41 40 41 41 38 35 37 37 38 40 40 41 42 42 41 42 44 48 48 52 57 53 54 50 50 55 51 53 47 48 48 48 42 38
63 58 55 47 45 52 58 62 69 62 59 41 34 29 39 39 41 40 38 37 34 35 36 37 37 38 39 40 38 37 39 43 47 50 51 56 55 58 56 53 50 50 53 53 48 47 45 42 39
57 54 55 48 47 46 52 56 59 66 63 54 39 32 32 38 39 38 37 35 33 35 36 37 34 35 35 36 35 36 38 38 43 50 50 50 51 51 55 52 51 50 54 56 55 54 49 43 38
47 49 48 44 41 43 43 47 57 62 65 62 55 50 30 35 36 38 36 33 34 36 35 34 32 32 34 36 38 38 40 41 44 48 52 53 56 59 59 56 56 52 52 54 53 50 48 42 40
41 40 41 39 35 37 37 46 50 57 64 67 61 55 39 34 36 34 32 30 35 36 34 32 32 32 32 33 35 37 41 45 45 51 56 57 59 59 61 57 50 49 50 49 46 43 40 38 38
33 34 36 35 33 30 36 42 44 52 62 68 62 58 48 30 35 33 31 30 37 38 34 31 32 31 30 30 31 34 38 44 51 55 54 62 58 57 59 55 45 45 49 45 40 41 36 35 38
31 34 33 34 32 33 35 39 43 49 56 64 56 52 44 39 34 31 31 32 36 37 34 31 29 27 27 29 29 32 38 45 49 57 55 59 60 61 55 52 47 46 42 38 36 35 30 31 31
29 32 33 32 32 33 37 40 41 50 58 60 61 53 42 42 26 28 30 32 37 37 37 39 33 30 30 33 31 35 41 44 48 49 53 53 54 53 55 51 48 42 35 32 33 29 27 24 24
28 31 33 34 33 33 35 38 48 52 57 59 57 59 42 36 25 28 28 33 38 38 39 38 37 33 36 34 30 35 39 38 41 44 46 49 54 53 50 46 45 38 31 30 30 30 32 32 28
23 28 34 34 34 32 30 36 41 47 50 54 59 54 48 37 32 24 26 30 32 34 35 34 33 33 32 36 38 37 39 38 39 42 44 44 43 48 45 44 42 33 30 30 34 41 42 41 44
19 23 31 33 34 35 34 33 37 46 49 56 58 48 47 43 37 25 20 22 26 28 28 28 27 26 28 31 36 35 40 40 37 38 39 39 39 40 39 43 37 31 34 35 46 52 49 44 48
18 19 27 33 33 36 36 37 37 41 47 48 51 47 47 45 40 34 27 26 21 21 24 25 26 27 29 32 31 32 33 35 33 30 33 38 37 35 36 35 30 33 36 40 50 53 49 46 50
13 16 22 30 34 32 33 34 29 33 48 45 48 41 44 39 38 35 30 23 23 17 17 19 21 23 26 27 27 27 30 32 31 31 35 35 34 34 31 34 30 36 39 43 49 51 52 48 53
11 13 19 26 32 33 27 31 25 33 35 44 44 42 42 42 40 35 31 29 28 27 17 18 18 19 23 25 26 25 25 29 30 32 34 29 32 32 27 27 32 39 44 45 48 50 52 47 48
12 15 23 26 29 27 26 29 20 23 27 35 39 43 43 42 41 40 41 38 40 34 32 20 20 21 22 23 25 25 25 27 29 31 30 29 27 30 25 25 35 42 45 45 47 47 47 46 47
13 14 23 25 25 24 26 22 19 19 27 33 37 39 42 42 41 40 44 44 42 39 37 35 29 21 22 23 23 24 25 26 27 30 30 26 24 27 27 29 36 42 46 45 44 45 45 48 47
14 16 12 16 18 20 22 19 18 19 22 30 33 36 38 40 42 44 47 46 43 38 33 34 34 31 27 26 27 28 28 27 27 27 28 25 26 27 28 31 36 41 45 46 45 46 46 47 48
14 13 17 19 21 21 18 15 17 17 17 24 30 31 33 34 38 41 44 46 47 43 32 34 35 32 31 28 28 32 34 31 28 29 30 27 27 28 24 32 36 43 45 46 47 47 49 48 49
17 16 16 16 18 18 19 14 11 11 13 17 24 30 30 31 32 35 38 43 46 44 39 36 36 34 32 32 31 31 32 33 30 26 28 30 29 27 23 32 38 42 45 47 47 48 48 47 45
17 16 16 18 17 16 16 12 8 7 7 11 20 27 27 26 27 29 32 37 44 45 43 38 37 34 31 33 33 31 32 34 32 26 26 29 31 25 23 30 36 41 45 46 46 45 47 50 48

GFSSGP_prec_cthk_033.txt.gz
RH
77 80 83 87 91 87 83 78 76 78 80 82 81 81 82 83 82 86 96 96 96 94 93 91 88 78 67 52 46 44 40 37 33 31 32 36 38 40 41 43 46 50 56 56 61 60 67 70 73
76 81 88 86 87 75 73 72 72 75 79 79 81 81 82 83 85 89 93 97 94 89 88 87 80 68 51 44 43 40 38 34 31 31 34 36 37 39 41 42 42 48 48 51 53 56 60 67 71
77 81 83 83 76 70 67 69 72 75 78 78 78 80 83 83 83 86 89 92 89 85 84 74 66 49 41 42 40 39 36 31 35 37 39 41 40 41 43 42 42 46 47 47 47 50 53 57 64
75 79 82 81 71 65 64 67 70 72 73 75 76 81 84 82 83 82 83 85 80 78 74 60 49 40 39 40 39 36 34 35 41 43 48 51 48 47 48 47 47 49 48 48 48 49 51 55 64
69 76 78 72 65 64 62 61 62 67 69 73 74 76 83 84 80 75 78 77 74 72 62 49 41 38 40 38 36 37 38 43 46 49 55 55 53 55 59 60 56 59 56 57 61 63 65 65 69
75 67 63 60 61 59 60 56 57 62 66 69 71 72 79 80 73 69 71 69 67 63 53 47 39 39 39 37 39 41 43 48 52 54 56 55 56 59 60 57 58 57 57 58 61 61 58 54 55
72 66 60 59 54 52 51 52 55 55 59 63 67 67 72 71 67 64 65 62 59 55 46 43 39 39 39 39 42 44 46 52 53 55 57 55 54 50 48 47 47 45 44 45 47 47 47 45 41
72 65 60 60 57 54 56 50 48 49 51 57 64 65 65 63 61 58 61 58 54 50 44 38 38 38 40 42 44 46 49 53 52 54 57 51 49 44 40 38 38 41 40 42 45 43 40 37 36
70 65 61 59 58 57 59 56 52 42 47 51 58 60 59 59 57 56 55 54 48 45 39 36 36 39 40 43 44 47 48 48 47 55 53 47 44 40 40 41 44 48 50 46 45 43 40 37 35
63 62 54 54 53 50 56 58 54 46 43 49 50 50 55 55 52 51 49 46 44 43 40 38 39 39 40 42 42 43 42 42 42 49 53 53 52 49 47 47 52 57 52 50 51 46 42 40 38
67 59 51 48 50 51 54 60 58 54 43 39 50 46 47 47 49 49 47 44 40 40 38 37 39 41 41 40 40 41 41 43 44 48 50 53 49 49 47 52 55 53 49 47 46 48 43 42 42
66 59 54 50 49 54 56 54 61 57 48 40 37 43 45 43 43 43 43 41 39 39 35 37 38 39 40 38 38 39 43 42 45 48 50 55 52 52 49 50 51 54 54 53 51 50 46 44 41
59 56 52 47 48 51 52 50 50 57 58 50 50 38 41 42 43 43 43 41 37 37 36 35 37 39 38 35 35 37 39 42 42 44 46 48 48 47 50 52 52 54 54 54 59 53 50 44 40
48 50 47 41 41 50 47 43 44 53 61 58 55 48 35 39 40 41 40 36 32 35 36 35 34 35 36 34 35 35 35 39 43 47 47 49 52 54 53 55 53 52 53 53 50 46 46 40 39
41 39 39 38 38 41 39 42 45 50 56 62 60 57 40 37 41 39 35 32 32 34 35 33 33 33 35 37 38 38 37 38 41 47 50 51 54 56 55 54 47 49 51 49 41 42 44 38 39
35 35 38 39 38 37 37 36 41 47 54 56 59 59 52 33 37 39 37 35 33 33 33 32 31 32 34 34 35 37 39 40 44 50 54 56 55 56 55 52 44 46 45 46 38 38 37 35 36
30 31 37 37 34 33 36 35 40 45 47 59 56 54 51 43 35 37 36 33 33 34 32 31 32 30 30 31 32 33 35 39 47 51 52 54 59 55 54 52 46 44 39 37 35 36 33 29 33
26 29 35 35 32 33 34 37 45 45 46 51 55 53 47 44 32 34 35 34 33 35 33 31 30 29 29 28 28 28 32 39 46 51 53 50 52 53 50 53 48 42 34 35 36 32 30 28 28
27 29 32 36 33 34 31 35 42 46 47 47 58 58 50 43 31 32 34 35 34 35 34 30 27 25 25 26 27 29 31 35 44 44 45 48 49 50 50 49 44 40 35 35 35 36 39 40 35
23 27 28 34 33 30 30 34 36 44 45 46 53 58 50 44 39 29 32 32 31 33 32 31 30 28 26 26 29 31 32 32 39 41 42 42 45 46 46 45 42 35 35 35 41 47 48 50 46
18 21 25 31 33 29 29 30 32 38 43 46 47 56 56 45 39 29 29 28 28 30 29 28 30 29 27 30 35 33 31 34 37 39 41 41 43 40 41 42 37 34 35 43 46 51 51 49 45
13 16 23 30 32 31 29 27 33 34 38 44 50 43 47 47 40 32 26 26 24 24 27 27 29 28 28 28 31 31 31 35 35 34 37 38 39 39 38 39 36 31 36 45 51 50 51 48 45
10 13 17 24 31 33 30 30 28 34 39 40 41 35 42 46 45 35 30 24 24 23 23 25 26 25 26 26 26 28 31 33 39 38 33 34 38 36 36 36 32 31 35 44 52 51 50 48 45
11 13 15 20 25 28 27 28 24 29 32 35 35 37 40 41 38 38 37 35 27 24 21 21 23 23 24 25 26 26 26 30 34 34 31 34 33 34 32 33 32 34 39 48 51 52 48 48 44
14 14 17 19 21 20 22 28 19 25 26 29 33 32 40 39 40 37 36 34 31 29 20 17 18 20 21 22 24 24 24 25 29 33 34 34 31 27 27 28 29 35 42 49 50 47 47 48 45
14 13 14 17 14 15 19 18 18 19 23 27 31 28 34 38 41 38 38 38 36 34 32 30 21 17 20 21 21 22 23 25 26 30 33 34 31 26 26 26 26 33 43 50 48 44 46 47 44
15 16 11 11 14 14 13 13 14 16 20 24 27 32 38 37 34 32 34 37 40 40 39 34 33 31 24 20 22 23 23 24 25 26 29 31 31 29 27 27 28 33 42 47 48 46 45 45 45
14 13 15 15 16 15 12 14 11 13 15 22 28 30 34 38 34 32 40 41 41 41 39 35 35 34 33 32 24 23 24 25 26 27 27 29 29 30 30 27 28 35 42 45 48 48 47 47 46
17 17 15 13 12 12 11 9 9 10 12 15 23 28 32 35 34 36 40 42 44 45 45 38 35 35 34 34 32 27 25 25 30 29 29 29 29 30 32 28 27 35 40 45 47 48 47 46 45
18 16 16 15 18 13 11 9 8 8 8 10 16 23 28 32 33 34 34 36 39 44 46 44 37 35 33 33 34 33 31 30 30 29 29 29 27 29 33 28 25 32 40 43 46 48 48 45 43

GFSSGP_prec_cthk_036.txt.gz
RH
76 83 86 88 89 78 74 73 71 74 76 76 75 78 78 84 85 93 96 98 92 94 91 86 77 68 56 51 42 37 34 31 31 35 38 39 40 42 46 48 54 57 58 62 63 70 72 74 75
80 87 87 84 81 74 70 69 73 73 75 76 76 76 80 84 86 92 97 94 92 94 92 86 71 58 50 43 40 37 32 30 31 34 36 37 39 40 41 45 50 52 53 55 56 59 65 70 80
82 89 86 78 72 71 66 67 72 74 74 75 76 79 79 86 86 93 91 91 92 93 90 81 65 52 43 41 39 34 30 33 36 37 37 38 39 42 43 44 51 49 48 49 51 58 58 63 69
80 86 82 83 67 61 63 65 66 69 72 72 75 79 82 84 85 88 91 94 89 86 83 72 57 44 41 40 37 31 36 40 43 45 46 44 43 45 44 48 49 51 50 51 52 58 63 71 69
79 78 78 71 60 59 58 61 64 65 68 69 73 79 84 85 83 84 86 86 82 78 71 60 44 40 39 39 35 36 41 44 48 54 53 51 54 58 57 55 59 58 60 63 65 66 65 66 69
80 70 66 62 57 58 56 55 60 61 63 67 71 78 85 81 76 79 78 76 73 69 60 49 37 39 39 37 40 41 44 50 52 55 54 54 58 59 57 58 59 58 57 56 54 51 48 49 50
70 63 58 55 56 52 53 54 56 57 61 63 67 72 80 75 72 71 70 69 67 60 55 46 41 40 38 40 43 44 49 51 53 53 53 53 52 51 50 47 45 41 45 47 49 46 41 37 34
72 61 57 52 54 53 47 47 51 53 57 59 66 66 65 64 64 67 67 64 62 55 50 46 47 44 44 43 45 46 51 51 52 55 52 51 47 44 41 41 43 43 44 44 42 40 38 36 35
71 63 57 53 55 49 48 46 44 45 50 57 63 61 60 60 59 63 63 61 58 52 48 46 47 48 46 49 47 48 46 49 47 50 46 45 52 50 52 47 47 48 47 46 44 42 39 36 35
66 63 59 54 48 49 49 48 42 44 46 50 58 60 60 57 56 58 56 54 52 49 47 48 47 49 47 53 50 49 47 49 50 54 52 54 52 51 54 56 53 51 49 48 47 45 40 60 49
61 62 56 49 49 49 50 52 52 42 44 48 53 52 56 55 54 56 55 51 48 45 45 45 48 49 49 51 46 46 47 51 49 53 55 56 54 54 56 59 56 54 49 60 56 54 48 46 40
57 56 52 49 50 50 52 53 55 49 39 37 45 48 51 52 52 52 51 50 46 44 43 46 49 46 46 47 44 49 49 51 51 48 46 54 55 54 53 58 56 56 60 56 60 61 57 50 43
56 55 48 48 48 48 48 48 50 54 47 46 35 41 47 49 51 51 51 49 46 42 42 45 48 45 44 43 45 50 49 48 51 49 49 51 52 52 56 55 60 55 53 63 63 60 56 45 44
54 55 50 45 44 45 46 45 45 49 51 50 47 34 41 44 45 49 47 43 41 41 42 45 43 44 41 39 41 45 46 48 46 48 47 46 51 53 60 56 56 55 57 64 57 56 52 48 42
48 46 44 41 41 45 42 41 41 48 53 53 52 51 33 39 45 43 41 40 39 42 43 41 40 41 37 34 33 38 43 45 47 47 48 49 49 53 66 54 52 53 60 54 50 42 39 38 38
39 38 39 38 36 41 38 42 42 46 49 53 53 52 45 33 39 41 40 39 40 42 43 38 38 39 39 40 37 39 40 42 44 47 50 52 52 53 55 53 48 57 55 49 45 37 45 38 34
33 33 38 38 36 37 39 43 43 44 47 49 53 52 48 39 36 39 38 37 40 41 40 37 37 37 39 39 41 40 41 40 44 48 50 50 52 50 48 50 49 45 42 42 43 42 34 34 36
32 31 31 39 35 35 38 41 40 46 45 48 50 54 47 46 35 35 37 38 38 41 37 37 36 36 36 37 36 39 38 39 41 45 49 51 49 52 49 50 57 46 37 40 42 37 36 37 33
28 29 30 36 35 32 33 39 40 45 47 46 45 50 52 42 44 31 36 38 37 40 36 36 36 34 33 32 32 33 33 36 39 44 46 45 45 44 46 49 50 47 35 36 37 47 47 53 46
21 23 26 36 34 31 33 36 40 41 44 43 47 46 51 53 45 32 33 34 34 38 35 35 33 30 27 31 30 32 35 37 39 41 42 37 42 44 45 47 46 39 40 36 43 49 55 52 48
17 19 26 31 34 32 31 31 34 36 39 44 44 48 50 51 51 40 28 30 32 34 34 33 31 28 26 29 33 35 36 33 34 38 38 39 39 40 40 47 49 37 40 47 47 49 49 54 44
12 16 24 27 31 31 32 32 32 35 37 37 38 40 46 42 46 41 30 28 29 31 33 31 30 28 28 27 31 32 31 32 34 37 41 41 38 39 37 37 38 34 41 46 50 48 50 46 48
9 12 18 25 28 30 31 29 31 34 32 36 39 39 41 38 43 41 32 23 24 28 31 30 31 29 29 26 27 29 30 33 39 40 40 39 39 36 38 35 35 32 35 42 49 48 46 45 47
10 11 13 17 23 26 24 27 24 29 28 33 39 34 35 39 40 40 35 34 26 26 28 28 29 26 26 25 24 24 27 29 35 39 41 39 36 38 34 34 31 30 36 42 47 46 44 42 43
12 14 14 15 17 18 20 24 19 24 26 31 33 33 31 37 40 34 38 34 30 26 24 25 26 24 24 23 22 21 23 26 28 34 38 38 36 36 34 29 27 28 33 42 46 46 44 41 42
13 14 12 16 12 14 17 18 16 20 25 27 31 32 33 36 35 33 33 35 35 28 25 21 18 18 21 21 19 20 22 26 28 29 35 34 36 36 34 28 26 24 31 39 43 46 44 43 40
15 14 10 11 12 13 13 13 14 17 20 24 27 29 28 29 36 35 37 37 36 34 32 30 26 20 19 20 20 20 20 22 25 25 26 31 32 35 32 28 25 28 28 37 43 46 42 42 42
16 13 13 12 16 15 11 12 14 13 15 19 23 28 26 23 28 35 37 34 35 38 38 40 36 31 28 28 26 23 21 21 22 24 25 26 29 30 33 28 25 28 30 35 40 45 45 41 40
16 17 15 13 11 12 13 10 10 10 13 16 18 22 26 21 28 30 30 31 36 42 46 41 38 35 32 30 27 27 24 22 24 26 25 25 27 28 30 28 25 27 31 35 38 43 46 43 40
18 17 15 14 16 12 12 11 10 8 9 14 17 22 26 28 33 38 35 37 40 39 41 44 41 39 36 34 32 28 28 24 21 21 25 27 27 27 27 29 28 25 27 35 37 39 44 44 41

GFSSGP_prec_cthk_042.txt.gz
RH
74 77 85 92 96 94 86 83 84 78 72 71 71 72 79 78 80 88 86 84 82 74 65 58 53 50 42 35 30 27 32 35 37 38 43 47 44 46 49 53 56 57 59 64 65 69 73 63 45
78 85 90 93 96 92 84 71 78 74 69 70 73 73 76 79 82 83 84 81 75 70 67 58 53 47 38 35 28 28 31 33 34 36 42 42 43 45 51 49 50 53 52 53 56 60 68 71 73
83 88 92 97 90 88 85 72 71 70 68 72 70 75 76 80 80 82 82 77 74 71 70 57 50 45 40 33 28 26 30 32 33 36 37 39 41 44 47 46 46 48 49 52 55 56 60 63 64
82 89 90 92 85 75 72 69 68 65 67 68 71 78 80 78 78 80 77 78 74 74 66 53 46 42 37 29 27 27 29 32 33 36 38 40 40 42 44 44 47 47 48 53 60 62 64 68 71
89 88 94 97 74 69 61 58 65 63 66 68 70 74 78 80 80 81 75 69 73 71 59 49 44 40 33 29 31 31 35 37 40 40 41 43 43 46 47 49 53 56 55 50 46 44 46 48 53
85 86 85 78 74 52 56 58 61 71 63 69 70 71 84 83 80 83 78 71 74 66 54 45 41 37 31 32 36 38 43 46 47 46 50 53 52 52 52 49 45 42 40 38 34 31 29 28 30
82 88 84 83 70 57 52 53 58 51 62 65 67 71 80 81 79 77 73 69 64 61 51 44 39 35 34 35 38 43 48 52 51 51 55 53 49 44 40 36 40 40 40 37 35 31 28 27 31
75 81 88 84 66 62 50 50 56 53 57 61 65 70 77 75 71 69 69 66 61 58 47 43 39 35 36 37 40 47 48 49 49 48 45 42 39 38 38 39 38 37 36 36 36 45 53 42 31
65 79 74 65 62 62 52 53 66 56 55 62 61 63 71 70 66 65 64 66 64 61 47 42 40 40 42 40 44 45 46 51 49 46 45 46 48 49 44 42 44 43 42 41 49 51 59 34 50
63 89 82 67 63 59 60 50 43 45 52 58 56 63 66 66 61 62 60 57 54 58 45 43 44 45 44 48 44 43 43 45 50 50 47 50 61 60 57 50 48 42 48 58 57 55 65 47 41
59 70 66 60 71 62 61 50 50 44 50 55 51 57 60 62 61 60 57 58 54 52 45 46 45 46 47 49 42 41 42 51 65 57 61 71 66 71 59 59 71 49 58 65 62 56 55 42 54
58 64 63 59 55 60 66 64 57 46 56 48 51 50 55 57 58 57 55 53 48 47 48 48 45 46 51 52 44 41 45 57 58 62 60 63 57 90 62 58 86 59 74 64 61 52 42 44 48
54 59 66 66 57 51 59 61 57 56 56 46 45 49 52 52 56 57 56 53 47 47 52 50 48 45 49 57 42 48 51 51 54 51 49 54 52 73 71 67 62 56 69 66 53 50 42 47 42
50 52 57 63 50 56 49 55 42 54 51 32 34 42 46 50 53 52 52 49 50 51 52 48 47 44 44 45 44 56 49 49 52 49 42 44 69 57 59 62 64 65 60 56 46 41 55 47 40
47 56 54 61 48 49 43 59 50 64 65 42 38 36 42 49 53 52 47 45 49 47 44 49 44 42 40 42 41 47 47 49 46 49 43 41 49 59 56 60 65 69 48 42 46 38 46 48 42
43 50 51 50 51 46 40 45 53 55 58 45 45 43 37 39 45 51 52 47 51 45 44 45 45 41 40 41 42 40 45 47 49 47 45 41 42 56 54 64 60 72 55 39 39 52 44 44 37
41 44 48 52 48 48 39 39 44 57 62 51 44 46 43 36 42 45 47 49 46 43 42 42 45 43 37 38 41 40 41 46 47 47 47 44 44 45 46 63 65 57 54 45 40 45 50 45 51
44 41 48 48 43 41 42 36 45 45 61 67 46 50 49 46 35 39 41 43 42 41 38 39 40 41 36 35 36 38 39 42 45 48 48 44 43 43 49 55 58 49 60 48 44 44 45 46 55
39 39 35 42 42 42 40 37 40 44 49 66 52 65 46 48 43 41 40 42 43 40 38 37 35 36 36 36 34 36 36 41 43 46 46 42 40 40 44 51 62 45 38 38 37 52 51 48 46
35 34 32 36 38 40 38 38 35 41 47 60 52 69 47 50 46 40 38 38 38 37 36 33 33 35 36 35 36 36 39 40 41 41 40 39 36 35 40 50 54 65 44 39 38 47 51 50 47
31 32 30 33 37 45 42 37 38 40 44 51 59 48 49 48 45 41 34 34 35 35 33 31 30 32 32 32 34 36 38 39 39 37 36 36 32 35 47 47 49 53 44 44 51 38 51 51 47
28 26 32 36 33 37 33 38 35 30 39 44 47 50 52 47 49 52 46 37 32 32 31 29 29 29 29 29 30 29 29 31 33 35 33 33 30 30 36 36 40 39 44 37 53 43 45 46 42
18 21 29 37 33 35 33 34 30 31 36 43 46 39 63 49 45 45 44 33 32 31 29 27 28 27 27 26 28 27 30 28 29 32 32 32 32 35 34 34 33 36 40 42 49 45 39 40 48
14 22 26 25 31 31 30 34 33 29 31 32 42 51 44 52 50 46 44 40 35 33 32 29 27 26 25 24 25 29 27 26 27 30 32 32 35 38 38 33 34 41 37 34 40 41 37 37 41
15 16 21 22 22 23 23 30 30 29 30 33 37 42 50 52 52 48 39 38 35 30 30 28 26 25 24 25 24 24 25 25 25 27 29 32 36 34 30 30 32 32 32 31 36 38 37 35 35
13 13 14 20 20 21 20 22 19 26 27 29 33 38 42 46 54 46 42 39 35 31 27 26 24 22 21 21 19 19 20 22 20 22 27 27 30 34 33 29 30 27 26 28 31 36 40 38 35
15 13 12 15 17 18 18 18 17 22 26 28 27 33 37 42 48 42 40 36 35 28 23 20 20 18 17 16 17 16 16 16 15 18 20 24 25 30 35 31 31 28 25 25 27 36 36 40 38
16 16 14 15 19 19 16 17 16 16 23 25 28 30 33 38 44 43 42 33 25 24 23 21 17 14 13 15 13 13 12 14 14 15 19 21 25 24 33 30 28 28 24 22 26 29 36 39 38
17 19 17 14 13 18 19 15 13 16 16 22 24 27 32 39 41 43 43 31 27 30 30 25 21 19 15 14 13 14 17 18 18 19 20 23 24 28 26 33 27 26 25 21 22 23 30 32 36
21 17 18 18 18 15 17 15 15 15 17 18 22 24 27 36 40 40 45 33 32 31 31 30 32 31 28 25 23 21 19 19 19 19 19 20 24 27 27 29 29 27 25 21 21 19 24 29 33

GFSSGP_prec_cthk_045.txt.gz
RH
75 78 86 92 97 96 87 83 78 84 84 78 71 71 75 74 76 82 81 79 72 63 56 53 46 40 34 28 28 31 33 37 38 40 39 39 42 49 51 51 52 55 59 60 62 66 62 52 42
76 83 92 93 99 99 86 75 80 74 72 72 73 73 76 81 80 80 78 78 67 58 54 49 43 36 32 27 28 32 34 35 37 41 39 39 42 45 46 50 51 49 50 52 53 59 61 61 65
80 87 92 96 95 96 85 75 72 70 67 69 73 73 76 80 81 78 76 71 63 58 52 48 43 34 30 25 28 31 31 33 34 37 39 40 42 44 45 46 47 47 49 52 56 59 62 63 68
86 92 96 99 95 82 80 75 66 65 66 68 70 75 76 76 78 77 72 68 64 56 50 46 39 36 28 25 25 29 32 32 34 36 37 38 41 43 45 44 45 47 53 56 53 54 57 57 61
90 90 89 91 91 76 70 66 70 64 65 68 67 76 77 79 78 77 71 68 62 55 47 44 40 36 27 25 25 29 32 35 36 38 38 39 44 46 49 51 51 46 40 35 34 32 31 36 50
91 86 86 90 83 76 71 73 69 70 64 69 71 72 76 78 78 74 73 63 57 52 43 41 41 31 28 28 30 34 37 40 41 44 45 49 51 53 49 42 40 37 33 29 26 24 24 29 41
89 88 90 89 90 76 60 64 63 66 63 67 67 71 76 76 74 73 68 62 57 48 41 38 35 29 32 35 37 42 45 45 47 55 54 52 48 38 39 43 38 33 32 31 33 40 30 35 52
84 90 84 88 90 83 62 62 71 66 58 62 63 70 74 73 70 68 63 63 58 45 39 35 32 30 34 36 41 45 46 47 51 50 44 38 37 39 40 40 39 36 36 42 58 51 32 40 51
79 97 93 78 73 70 73 62 63 69 53 60 62 66 71 71 64 63 59 60 57 44 38 34 32 32 35 37 43 42 45 47 47 42 40 42 43 41 44 43 41 36 41 48 46 50 47 39 52
73 81 78 68 68 71 72 70 55 50 51 61 62 66 69 64 62 58 57 55 50 43 38 34 32 34 37 40 40 43 46 47 43 43 53 56 60 49 43 50 46 49 59 51 53 49 46 52 41
61 75 68 69 72 68 64 64 65 53 54 48 52 57 62 61 59 55 55 50 46 42 40 35 32 36 40 39 39 41 42 45 51 51 57 57 51 55 51 61 54 58 56 66 50 52 48 45 40
61 67 73 68 69 70 60 61 63 57 55 47 44 48 52 57 53 53 52 49 52 44 40 35 34 38 41 41 38 41 44 60 61 68 64 61 62 57 61 84 66 80 65 53 47 39 45 49 43
58 63 67 63 62 62 56 54 62 58 63 50 42 50 49 54 54 54 52 50 44 42 39 37 37 38 41 45 39 40 44 49 56 56 61 57 67 60 60 55 57 72 73 61 42 43 54 47 42
51 56 64 63 55 56 54 50 55 59 65 42 36 41 47 47 51 53 51 48 42 40 41 40 40 40 40 46 41 42 45 52 50 47 48 67 69 58 53 54 67 68 46 44 41 47 52 54 44
49 56 67 63 64 66 68 54 55 57 56 52 37 35 38 40 45 48 45 42 39 40 41 40 40 41 38 46 43 46 47 48 58 54 48 56 59 60 63 58 64 53 43 38 44 46 38 36 37
47 52 62 57 65 61 63 57 57 59 60 59 50 41 33 37 40 40 38 40 40 43 42 42 41 39 37 35 39 47 44 51 50 48 51 50 50 57 54 60 65 50 45 49 46 51 52 50 45
40 48 48 55 54 55 54 51 57 57 61 58 53 49 41 34 40 41 36 35 39 44 40 39 38 38 38 36 36 41 42 45 48 51 49 48 43 45 54 61 56 51 47 45 46 55 50 53 57
38 43 44 47 50 55 45 43 50 58 57 60 62 59 59 48 35 36 39 39 39 43 40 40 34 35 35 36 34 35 39 39 42 46 46 44 43 40 47 52 55 46 42 49 51 51 50 53 51
36 38 40 40 51 47 40 41 51 55 64 61 60 66 64 52 43 38 37 40 40 41 39 36 34 32 32 33 31 31 32 36 39 44 43 42 41 40 41 54 55 55 41 43 42 50 46 43 49
32 40 42 39 41 50 48 42 43 54 54 56 66 68 74 62 41 41 37 39 37 35 33 33 32 29 29 29 28 28 30 33 35 41 40 39 39 38 42 49 56 55 48 47 43 48 47 45 48
27 34 37 35 34 42 45 43 42 49 55 60 62 61 70 59 43 39 36 34 34 32 31 30 30 29 28 28 31 31 31 33 34 36 36 36 34 35 41 43 47 49 47 47 51 43 47 47 46
26 26 30 33 40 45 46 50 45 43 50 55 66 60 51 62 51 41 40 35 31 31 31 30 29 28 27 27 29 29 28 28 28 31 34 33 31 30 32 37 41 47 50 39 48 40 43 42 40
26 23 27 32 42 45 44 45 37 37 44 52 49 54 54 53 58 39 44 33 32 30 29 27 27 27 27 25 25 25 24 25 27 31 32 30 29 31 32 34 38 42 42 42 45 41 41 39 36
29 27 28 35 44 47 43 47 42 40 36 42 43 50 51 52 49 44 44 37 32 30 30 28 27 26 26 24 23 23 22 24 25 26 28 29 28 32 37 36 36 39 36 36 37 42 40 37 37
30 31 31 35 41 43 38 39 39 35 33 34 39 45 49 49 44 43 46 41 34 30 26 26 26 25 23 20 21 22 22 23 21 23 25 29 30 30 32 33 34 32 34 32 32 40 38 34 34
22 22 22 28 32 29 33 31 30 31 33 34 36 43 48 47 46 40 44 43 32 32 25 24 23 22 22 20 19 23 22 22 21 20 20 22 25 28 31 31 31 29 28 29 27 34 36 33 32
21 19 19 22 22 25 24 23 24 24 28 31 34 41 42 45 46 43 44 41 35 30 26 21 22 24 23 22 21 18 17 17 16 17 18 20 24 25 28 33 31 31 29 26 24 25 33 33 34
19 20 19 19 23 23 18 17 14 15 23 28 29 33 39 43 43 44 42 41 34 31 25 21 20 20 20 20 18 14 12 14 14 14 15 16 18 22 24 27 27 28 29 26 24 22 27 33 33
19 21 19 16 20 25 26 18 15 15 15 18 24 29 36 42 41 37 40 41 37 22 24 20 18 18 18 17 17 16 14 13 15 16 15 16 19 20 22 24 26 26 27 28 27 22 23 31 35
25 20 20 18 18 17 18 17 19 19 16 15 21 24 29 38 41 36 38 44 37 25 24 20 17 14 14 15 15 16 16 17 17 17 15 16 17 20 23 23 25 27 28 29 29 24 20 22 29

GFSSGP_prec_cthk_048.txt.gz
RH
74 75 84 89 95 95 89 84 81 84 83 77 76 75 78 82 79 79 77 73 69 64 62 60 46 34 30 30 30 31 34 37 37 38 40 47 51 52 54 54 59 61 61 63 66 64 61 52 55
75 78 87 91 98 92 86 83 80 74 73 74 75 76 77 81 83 78 74 70 64 59 57 50 38 31 27 27 30 31 36 38 37 38 42 46 46 49 53 52 53 52 53 55 60 60 63 57 56
77 83 89 95 96 94 88 76 71 69 71 72 77 77 78 81 79 76 73 67 59 54 49 41 34 28 26 27 31 32 34 37 38 38 44 43 43 46 47 47 47 49 52 57 61 64 65 64 63
83 90 98 94 85 86 84 76 72 70 72 75 76 78 79 81 77 75 68 63 55 50 44 39 32 27 25 26 28 30 31 33 36 39 42 41 43 45 44 44 47 52 52 49 50 50 50 56 61
87 87 90 89 89 83 84 83 76 75 71 72 72 78 80 81 79 75 67 61 52 47 44 38 31 25 24 25 28 30 32 33 34 34 36 40 43 44 45 46 43 36 32 30 27 27 32 49 59
90 87 88 95 88 77 82 90 77 72 69 71 73 73 80 80 78 70 66 56 50 46 42 38 36 25 24 26 28 32 34 35 37 37 39 43 46 44 39 37 33 31 28 26 25 25 34 48 54
81 83 91 86 83 80 79 77 80 64 63 68 69 72 79 80 75 72 67 55 49 46 40 37 30 26 28 29 33 37 37 39 44 45 47 45 38 36 36 34 31 32 37 51 31 31 42 66 66
81 81 83 83 80 91 76 74 81 68 61 62 63 69 74 76 75 72 62 57 50 44 38 35 26 30 33 35 40 41 41 47 48 46 40 32 32 34 33 34 35 41 46 56 40 38 49 58 67
81 82 78 86 86 90 86 76 73 68 59 62 63 65 66 71 72 66 59 56 51 42 37 33 27 33 36 39 42 42 45 45 41 35 35 34 32 33 36 37 39 47 50 47 47 41 40 49 54
78 86 80 76 71 76 77 74 57 56 57 62 62 60 66 67 64 58 55 53 46 40 36 31 30 34 37 41 40 42 43 40 41 43 47 47 45 39 42 43 48 54 52 54 49 43 41 39 44
72 74 71 70 72 74 69 67 66 55 54 48 52 57 61 58 56 55 55 51 43 38 36 31 32 35 38 39 39 42 41 36 42 54 55 49 47 47 53 50 53 54 65 52 47 42 47 43 40
64 66 68 69 70 66 64 62 69 61 51 41 41 49 51 52 52 50 53 49 43 38 35 31 33 36 38 37 38 41 40 51 57 64 59 60 65 62 60 60 69 63 54 45 38 43 42 41 41
61 62 66 70 65 56 57 60 70 64 59 50 46 49 49 50 52 51 52 48 43 38 36 31 33 36 36 36 37 41 51 58 63 65 58 65 59 56 51 58 63 58 57 45 38 47 44 43 42
55 61 62 69 65 60 57 56 63 66 60 47 39 45 47 49 49 50 49 47 43 41 36 32 34 34 36 37 38 38 44 50 52 60 59 55 56 50 54 59 70 49 41 39 37 35 46 45 44
54 55 60 68 66 64 61 56 63 70 63 58 45 36 43 46 49 47 47 44 44 40 37 33 36 35 36 35 36 37 38 39 39 49 57 57 55 60 54 67 57 49 36 38 42 40 42 41 41
50 52 50 57 68 68 67 62 60 66 64 65 54 45 36 39 42 46 47 44 43 39 39 39 40 38 37 34 37 38 40 38 41 41 45 52 51 49 55 58 57 49 44 45 49 46 46 50 46
46 46 45 53 57 61 69 62 54 62 64 64 54 50 45 36 38 40 43 44 41 36 38 40 41 38 36 35 34 39 40 42 39 40 41 42 43 48 49 52 50 45 46 44 46 50 48 49 57
40 44 46 50 50 60 65 58 56 60 62 64 60 56 53 48 37 40 38 38 41 39 39 42 39 39 38 36 33 39 37 38 39 39 39 41 39 44 49 54 51 42 41 51 46 50 47 49 53
33 39 42 44 47 62 56 58 57 58 61 61 60 59 57 49 37 41 41 38 39 38 38 42 40 40 40 39 35 34 36 35 38 40 41 42 40 43 52 54 63 55 43 47 49 48 47 47 53
29 35 38 38 43 55 54 55 61 64 55 54 58 64 60 54 46 39 40 40 41 37 36 40 40 40 37 36 34 31 34 35 38 39 40 39 41 45 50 49 56 55 48 47 44 45 45 45 50
23 32 31 34 43 48 53 57 64 68 63 58 57 56 55 52 43 38 38 38 40 38 35 36 38 37 33 31 32 29 31 34 35 36 36 36 38 45 43 42 45 50 47 50 45 46 47 42 46
20 23 29 30 47 58 49 52 55 61 60 59 53 52 54 56 49 34 41 41 36 36 35 35 35 36 32 29 28 27 26 26 28 29 31 32 34 38 37 38 40 46 48 42 48 43 47 43 43
14 22 32 32 46 50 51 51 47 57 67 54 50 49 49 55 51 41 33 40 34 35 36 34 33 34 31 29 29 28 28 26 26 28 31 32 32 30 32 34 40 41 43 44 42 40 42 41 37
18 19 33 36 46 53 48 52 47 59 57 53 46 44 45 51 50 45 36 40 38 34 35 32 32 31 30 30 28 26 25 24 23 25 28 30 30 31 34 37 36 37 36 37 39 43 38 38 38
29 29 35 46 53 52 44 50 42 50 51 46 48 46 44 45 47 49 41 37 39 32 31 30 28 28 28 28 25 24 22 22 21 22 23 24 27 30 31 34 37 33 32 32 34 41 40 34 35
33 34 40 47 47 45 32 43 34 37 42 46 47 43 45 44 47 52 45 38 37 32 30 29 26 25 25 26 24 21 21 24 22 21 21 24 26 28 31 31 31 34 31 31 31 35 39 38 36
36 34 33 35 30 37 31 32 31 37 34 40 45 50 50 47 45 49 47 40 37 32 30 27 25 23 23 22 23 22 23 21 19 19 20 21 23 25 28 32 33 34 33 28 29 31 36 39 38
32 32 33 33 35 28 27 26 28 29 28 31 36 40 40 45 44 44 46 40 42 32 33 28 27 21 21 22 22 24 20 19 18 18 17 16 17 19 21 26 30 33 36 34 30 28 31 37 37
38 34 31 29 30 26 26 20 19 22 26 28 32 34 33 41 43 44 44 44 40 34 32 28 28 25 22 21 21 22 21 18 16 15 14 14 15 16 18 19 23 29 34 35 33 30 27 30 35
42 34 32 27 24 24 22 15 16 16 16 23 25 34 31 32 37 43 44 43 42 38 32 26 24 24 20 17 19 19 18 17 16 15 15 15 16 17 18 20 23 28 28 30 30 30 29 23 26